[[{"header":{"parameterUnit":"m.s-1","parameterCategory":1,"la1":30.2991,"la2":30.254,"lo1":-89.0895,"lo2":-89.0444,"dy":0.0017,"dx":0.0017,"nx":28,"ny":28,"refTime":"2024-06-28T21:00:00:Z","depth":0,"parameterNumber":2,"parameterNumberName":"U-component_of_WINDS"},"data":[0,0,0,0,0,0,0,0,0,0,0,0,0,0,0,0,0,0,0,0,0,0,0,0,0,0,0,0,0,0,0,0,0,0,0,0,0,0,0,0,0,0,0,0,0,0,0,0,0,0,0,0,0,0,0,0,0,0,2.9983,2.9983,0,2.9996,2.9996,2.9996,2.9945,2.9944,2.9942,2.9941,2.9953,2.9955,2.9956,0,0,0,0,0,0,0,0,0,0,0,0,0,2.9911,2.9912,2.9983,2.9983,2.9983,2.9996,2.9996,2.9996,2.9945,2.9943,2.9942,2.994,2.9952,2.9954,2.9956,0,0,0,0,0,0,0,0,0,0,0,0,0,2.9935,2.9913,2.9983,2.9959,2.9957,2.9996,2.9996,2.9996,2.9946,2.9943,2.9941,2.9939,2.9952,2.9954,2.9957,3.0018,0,0,2.9965,2.9966,0,0,0,0,0,0,0,0,2.9934,2.9938,2.9963,2.9961,2.9959,2.9967,2.9975,3.0004,2.9946,2.995,2.9941,2.9938,2.9959,2.9961,2.9968,3.0019,3.0019,2.9965,2.9966,2.9968,2.9968,0,0,0,0,0,0,0,2.9932,2.9937,2.9988,2.9963,2.9961,2.9947,2.9948,2.998,2.9967,2.995,2.9946,2.9948,2.9958,2.9966,2.9968,3.002,2.9965,2.9967,2.9969,2.997,3.0116,3.0119,0,0,0,0,0,0,2.9934,2.9936,2.9988,2.9988,2.994,2.995,2.9951,2.9966,2.9967,2.9965,2.995,2.9946,2.9963,2.9965,2.9969,3.0037,2.9968,2.997,2.9972,3.0114,3.0117,3.0119,0,0,0,0,0,0,2.9932,2.9939,2.9987,2.9961,2.9966,2.9954,2.9971,2.9968,2.9976,2.9967,2.9964,2.9961,2.9961,2.9965,3.0005,3.0037,2.9971,2.9974,3.0111,3.0115,3.0118,3.0177,0,0,0,0,0,0,2.993,2.9939,2.9963,2.9962,2.9968,3.0025,2.9973,2.997,2.9981,2.9975,2.9977,2.9975,2.996,3.0002,3.0008,3.0039,2.9976,3.0108,3.0113,3.0117,3.0172,3.0182,3.0191,0,0,0,0,0,2.9928,2.998,2.9964,2.9971,2.9998,3.0027,3.003,3.0012,2.9984,3.0007,3.0001,2.9975,3.0033,3.0006,3.0013,3.0046,3.0106,3.0112,3.0117,3.0168,3.018,3.0191,0,0,0,0,0,0,2.9985,2.9979,2.9962,3.0015,3.0022,3.0018,3.0047,3.0026,3.004,3.0035,3.0011,3.0012,3.0055,3.0055,3.0025,3.0103,3.0065,3.0071,3.0101,3.0113,3.0122,3.012,2.9978,0,0,0,0,0,3.0004,3.0029,3.0022,3.007,3.0074,3.006,3.0072,3.0057,3.0063,3.0065,3.0062,3.0068,3.0087,3.01,3.0118,3.0173,3.017,3.0198,3.0207,3.0215,3.0221,3.0245,3.0257,3.0137,3.0137,3.0137,0,0,3.0043,3.0043,3.006,3.0081,3.0084,3.0108,3.0063,3.0092,3.0109,3.007,3.0106,3.0104,3.0109,3.0156,3.0177,3.0157,3.0253,3.0222,3.0228,3.0229,3.0252,3.0263,3.0273,3.014,3.014,3.0139,0,0,3.0126,3.013,3.0168,3.0172,3.0177,3.0167,3.0176,3.0175,3.0172,3.0209,3.0178,3.0198,3.0233,3.0237,3.0243,3.0324,3.03,3.0331,3.0378,3.0403,3.0412,3.0421,3.0446,3.0456,3.0337,3.0337,3.0337,0,3.0174,3.021,3.019,3.022,3.0228,3.0193,3.023,3.0235,3.0246,3.0252,3.023,3.027,3.0272,3.0317,3.0336,3.0344,3.0351,3.033,3.0413,3.0421,3.0428,3.0452,3.0462,3.034,3.034,3.034,3.0339,0,3.0267,3.0292,3.0322,3.0332,3.0344,3.0378,3.0361,3.0375,3.0359,3.0351,3.0387,3.0387,3.0402,3.0412,3.0397,3.0454,3.0442,3.0417,3.0377,3.0443,3.0465,3.0475,3.0345,3.0344,3.0343,3.0342,0,0,3.0386,3.0383,3.0394,3.0396,3.0398,3.0417,3.0447,3.0462,3.0473,3.0482,3.0504,3.0533,3.0509,3.0517,3.0502,3.0524,3.0583,3.0496,3.0495,3.0509,3.0642,3.0659,3.067,3.0568,3.057,3.0571,3.0641,0,3.0465,3.0517,3.0498,3.055,3.0571,3.0538,3.0564,3.0567,3.056,3.0576,3.0568,3.0587,3.0556,3.056,3.058,3.0572,3.0609,3.0567,3.0587,3.0588,3.0584,3.0682,3.07,3.0766,3.065,3.0651,3.0652,0,3.0564,3.0574,3.0628,3.0623,3.0631,3.0655,3.0664,3.0681,3.0683,3.0676,3.0683,3.0662,3.069,3.0652,3.0688,3.066,3.0667,3.0664,3.0666,3.0665,3.0622,3.0681,3.0787,3.0796,3.0666,3.0665,3.0664,0,3.0641,3.0669,3.0703,3.0707,3.0703,3.072,3.0719,3.0719,3.0727,3.0736,3.0741,3.0753,3.0759,3.0768,3.075,3.0725,3.0788,3.0749,3.0781,3.0781,3.0794,3.0793,3.0899,3.0803,3.0803,3.0803,3.0803,0,3.0729,3.0762,3.0737,3.0759,3.0794,3.0772,3.0808,3.0803,3.0803,3.0821,3.0793,3.0811,3.0788,3.0803,3.079,3.0819,3.0823,3.0817,3.0812,3.0818,3.0818,3.082,3.0814,3.0806,3.0805,3.0805,3.0804,0,3.082,3.0806,3.0841,3.0833,3.0832,3.0858,3.0851,3.0869,3.086,3.0883,3.0887,3.0872,3.0888,3.0872,3.0887,3.0878,3.0917,3.0908,3.0916,3.0912,3.0943,3.0939,3.1053,3.1065,3.0964,3.0965,3.0966,0,3.0876,3.0901,3.0895,3.0905,3.0905,3.0922,3.093,3.0909,3.0918,3.092,3.0938,3.0951,3.0961,3.0988,3.0977,3.0988,3.0977,3.1016,3.0978,3.0981,3.0973,3.0971,3.0971,3.1023,3.1024,3.1025,3.1026,0,3.0975,3.0966,3.0978,3.0988,3.0998,3.1004,3.1009,3.1018,3.0996,3.1007,3.1023,3.103,3.1045,3.1057,3.1065,3.1063,3.1039,3.1038,3.1045,3.1049,3.1052,3.1047,3.0933,3.1035,3.1034,3.1033,3.1033,3.1032,3.1048,3.1067,3.1065,3.1078,3.1079,3.1083,3.1099,3.109,3.1103,3.1112,3.1099,3.1117,3.1116,3.1123,3.1124,3.1137,3.112,3.1131,3.1134,3.1136,3.1139,3.1052,3.1139,3.1138,3.1138,3.1138,3.1138,0,3.1143,3.1139,3.1152,3.1158,3.1168,3.1146,3.1149,3.1158,3.1175,3.1175,3.1184,3.1201,3.1212,3.1203,3.1212,3.1224,3.1213,3.1227,3.1224,3.1223,3.1155,3.1146,3.1235,3.1235,3.1235,3.1235,3.1235,3.1235,3.1193,3.1222,3.1212,3.124,3.1236,3.1253,3.1256,3.1259,3.1259,3.1278,3.1287,3.128,3.1276,3.1284,3.1293,3.129,3.1293,3.1309,3.1302,3.1238,3.1228,3.1219,3.1211,3.1311,3.1311,3.1368,3.1369,3.1369]},{"header":{"parameterUnit":"m.s-1","parameterCategory":1,"la1":30.2991,"la2":30.254,"lo1":-89.0895,"lo2":-89.0444,"dy":0.0017,"dx":0.0017,"nx":28,"ny":28,"refTime":"2024-06-28T21:00:00:Z","depth":0,"parameterNumber":3,"parameterNumberName":"V-component_of_WINDS"},"data":[0,0,0,0,0,0,0,0,0,0,0,0,0,0,0,0,0,0,0,0,0,0,0,0,0,0,0,0,0,0,0,0,0,0,0,0,0,0,0,0,0,0,0,0,0,0,0,0,0,0,0,0,0,0,0,0,0,0,3.0142,3.0143,0,3.029,3.0291,3.0293,3.0313,3.0312,3.0311,3.0309,3.0459,3.0464,3.0469,0,0,0,0,0,0,0,0,0,0,0,0,0,2.9874,2.9879,3.0141,3.0143,3.0145,3.0289,3.0291,3.0293,3.0314,3.0312,3.031,3.0309,3.0457,3.0464,3.047,0,0,0,0,0,0,0,0,0,0,0,0,0,3.0003,2.9881,3.0141,3.0173,3.0177,3.0289,3.0292,3.0294,3.0314,3.0312,3.031,3.0308,3.0455,3.0463,3.0471,3.0561,0,0,3.0495,3.0498,0,0,0,0,0,0,0,0,2.9996,3.0013,3.0166,3.0171,3.0176,3.0281,3.0252,3.0384,3.0314,3.0262,3.0309,3.0307,3.0401,3.0414,3.0446,3.0568,3.0575,3.0496,3.0501,3.0504,3.0506,0,0,0,0,0,0,0,2.9987,3.0007,3.02,3.0168,3.0174,3.0179,3.0195,3.0277,3.0341,3.0266,3.0268,3.0285,3.0404,3.0438,3.045,3.0577,3.0496,3.0503,3.0507,3.0511,3.0781,3.0783,0,0,0,0,0,0,2.9972,2.9999,3.0195,3.0204,3.0079,3.0185,3.0203,3.0249,3.0341,3.0353,3.0287,3.0286,3.0426,3.044,3.0455,3.0567,3.0504,3.0511,3.0516,3.0778,3.0781,3.0784,0,0,0,0,0,0,2.9967,2.999,3.0189,3.0102,3.0128,3.0192,3.0244,3.0253,3.0288,3.0356,3.0368,3.0311,3.0425,3.0444,3.0535,3.0572,3.0515,3.0522,3.0775,3.0779,3.0783,3.0791,0,0,0,0,0,0,2.9959,2.9988,3.0023,3.0103,3.0133,3.0267,3.0246,3.0258,3.0302,3.0302,3.0382,3.0393,3.0425,3.0523,3.0543,3.0582,3.0528,3.0772,3.0777,3.0781,3.0788,3.0795,3.0801,0,0,0,0,0,2.9949,3.0019,3.0025,3.0048,3.0178,3.0269,3.0286,3.0322,3.0305,3.0341,3.0385,3.039,3.0565,3.0532,3.0554,3.0597,3.077,3.0776,3.0781,3.0785,3.0793,3.08,0,0,0,0,0,0,2.9941,3.003,3.0037,3.0135,3.0195,3.0273,3.0319,3.033,3.0395,3.0392,3.0432,3.045,3.0539,3.0577,3.0539,3.0689,3.0666,3.0676,3.0661,3.067,3.0676,3.0665,3.0535,0,0,0,0,0,2.9951,3.0018,3.0092,3.0171,3.0201,3.0255,3.0296,3.0318,3.0381,3.0406,3.0457,3.0517,3.0585,3.063,3.0696,3.0793,3.0811,3.0834,3.084,3.0845,3.0853,3.0907,3.0918,3.0802,3.0802,3.0802,0,0,2.9971,3.0028,3.0068,3.0171,3.022,3.0288,3.0276,3.0348,3.0399,3.0417,3.0506,3.0545,3.0615,3.071,3.0754,3.0744,3.0889,3.0852,3.0855,3.0861,3.0914,3.0925,3.0935,3.0806,3.0805,3.0804,0,0,3.0044,3.0094,3.0165,3.0214,3.0288,3.0324,3.0341,3.0418,3.0445,3.0535,3.055,3.061,3.0728,3.0777,3.0817,3.0908,3.0916,3.0929,3.0962,3.1014,3.1023,3.1032,3.1064,3.1075,3.0937,3.0937,3.0937,0,3.006,3.0163,3.02,3.0273,3.0317,3.0337,3.041,3.0455,3.0547,3.0577,3.0565,3.0713,3.0761,3.0867,3.089,3.0922,3.0942,3.092,3.1019,3.1028,3.1036,3.1067,3.1079,3.0938,3.0938,3.0938,3.0938,0,3.0179,3.0251,3.03,3.0389,3.0439,3.0511,3.0558,3.0604,3.0622,3.0659,3.075,3.0809,3.0888,3.0915,3.0933,3.1024,3.1016,3.1011,3.0988,3.1048,3.1078,3.109,3.0939,3.0939,3.0939,3.0938,0,0,3.0251,3.0359,3.0377,3.0417,3.05,3.0556,3.0628,3.0707,3.0745,3.0808,3.087,3.0968,3.0965,3.101,3.1034,3.108,3.1148,3.1069,3.1072,3.1082,3.1252,3.1255,3.1268,3.1154,3.1156,3.1158,3.1246,0,3.0333,3.0463,3.0499,3.0609,3.0676,3.0695,3.0759,3.0816,3.0852,3.0913,3.0953,3.1023,3.1012,3.104,3.1086,3.113,3.1183,3.1124,3.1211,3.1214,3.1193,3.1284,3.1288,3.1368,3.1258,3.126,3.1261,0,3.0446,3.0511,3.0628,3.0703,3.0732,3.0788,3.0863,3.0921,3.0987,3.101,3.1061,3.108,3.1156,3.113,3.1235,3.1194,3.1232,3.1258,3.1262,3.1272,3.1241,3.1296,3.1394,3.1406,3.128,3.1279,3.1277,0,3.0486,3.0603,3.0689,3.0723,3.0812,3.0851,3.089,3.0953,3.0998,3.1063,3.1092,3.1164,3.1204,3.1259,3.1298,3.1275,3.14,3.1376,3.1421,3.142,3.1446,3.1444,3.1552,3.147,3.147,3.147,3.1469,0,3.0574,3.0644,3.0708,3.076,3.084,3.088,3.0958,3.0997,3.1054,3.1114,3.1135,3.1191,3.1238,3.13,3.1331,3.1413,3.1431,3.1451,3.1459,3.145,3.1447,3.1475,3.147,3.1473,3.1472,3.1472,3.1471,0,3.0632,3.0677,3.0772,3.0848,3.0869,3.0925,3.099,3.1042,3.1079,3.1155,3.1175,3.1232,3.1307,3.135,3.1444,3.1464,3.1556,3.156,3.1534,3.1537,3.1579,3.1574,3.1708,3.1728,3.1633,3.1634,3.1635,0,3.0685,3.074,3.0823,3.0865,3.0905,3.0972,3.1018,3.1059,3.1106,3.1184,3.1226,3.1302,3.1365,3.1483,3.1532,3.1604,3.1611,3.1653,3.1622,3.1611,3.1612,3.1608,3.1614,3.1658,3.1659,3.166,3.166,0,3.0774,3.0794,3.0859,3.0933,3.0987,3.1047,3.1106,3.1139,3.119,3.1241,3.1318,3.1367,3.1463,3.1537,3.1614,3.1653,3.1665,3.167,3.1684,3.1675,3.1657,3.1668,3.1548,3.1666,3.1666,3.1665,3.1665,3.1665,3.0832,3.0882,3.0948,3.102,3.1069,3.1124,3.1176,3.122,3.1284,3.1366,3.1386,3.1466,3.153,3.1634,3.1675,3.1738,3.1731,3.1752,3.1757,3.1761,3.1763,3.1647,3.1752,3.1752,3.1752,3.1752,3.1752,0,3.0922,3.0966,3.1032,3.1114,3.1171,3.1178,3.1244,3.1291,3.1361,3.142,3.1482,3.157,3.1642,3.1698,3.1773,3.1812,3.182,3.183,3.1828,3.1837,3.1765,3.1745,3.1823,3.1823,3.1823,3.1823,3.1823,3.1823,3.0976,3.106,3.1088,3.1197,3.124,3.1319,3.1357,3.1407,3.1455,3.1552,3.1613,3.1649,3.1706,3.1785,3.1852,3.1867,3.1893,3.1903,3.1918,3.185,3.1842,3.1835,3.1816,3.1908,3.1908,3.1985,3.1986,3.1987]}]]